Location: Grossmotten
(48.5500°N, 15.3833°E)
Time: 18:06:40
(UTC+00:00)

Cosmos 2346 Rocket - Pass Details

Date: 15 November 2019
Orbit: 935 x 981 km, 82.9° (Epoch: 07 December)

Event Time Altitude Azimuth Distance (km) Brightness Sun altitude
Rises 05:00:34 0° 348° (NNW) 3,634 7.2 -10.9°
Reaches altitude 10° 05:03:05 10° 346° (NNW) 2,679 6.5 -10.5°
Maximum altitude 05:09:08 66° 266° (W) 1,021 4.4 -9.5°
Drops below altitude 10° 05:15:05 10° 185° (S) 2,641 7.0 -8.6°
Sets 05:17:34 0° 183° (S) 3,580 7.7 -8.2°
